,,Stat5,,Stat1,,Stat2,,Stat3,,Stat4,,Wind1,,Wind1,
time,status,PA1M_AVG,status,PR1M_SUM,status,RH1M_AVG,status,SR1M_AVG,status,TA1M_AVG,status,W1dAve1m,status,W1sAve1m,
2000-10-15, 00:00:00,VALID,917.435,VALID,0,VALID,97.4316,VALID,-0.0849042,VALID,18.5641,VALID,81,VALID,0.272352,
2000-10-15, 00:01:00,VALID,917.435,VALID,0,VALID,97.3986,VALID,-0.0679233,VALID,18.5608,VALID,87,VALID,0.579464,
2000-10-15, 00:02:00,VALID,917.429,VALID,0,VALID,97.3986,VALID,-0.0339617,VALID,18.574,VALID,77,VALID,0.454644,
2000-10-15, 00:03:00,VALID,917.411,VALID,0,VALID,97.3401,VALID,-0.0679233,VALID,18.5735,VALID,74,VALID,0.691612,
2000-10-15, 00:04:00,VALID,917.387,VALID,0,VALID,97.3197,VALID,-0.0509425,VALID,18.5869,VALID,102,VALID,0.143304,
2000-10-15, 00:05:00,VALID,917.375,VALID,0,VALID,97.3108,VALID,-0.0679233,VALID,18.5837,VALID,73,VALID,0.136218,
2000-10-15, 00:06:00,VALID,917.375,VALID,0,VALID,97.3401,VALID,-0.0849042,VALID,18.5839,VALID,63,VALID,0,
2000-10-15, 00:07:00,VALID,917.361,VALID,0,VALID,97.4799,VALID,-0.0339617,VALID,18.5772,VALID,81,VALID,0.115954,
2000-10-15, 00:08:00,VALID,917.344,VALID,0,VALID,97.5867,VALID,-0.0509425,VALID,18.5707,VALID,93,VALID,0.137547,
2000-10-15, 00:09:00,VALID,917.318,VALID,0,VALID,97.6274,VALID,-0.0849042,VALID,18.5419,VALID,109,VALID,0.410684,
2000-10-15, 00:10:00,VALID,917.298,VALID,0,VALID,97.7012,VALID,-0.0679233,VALID,18.5188,VALID,94,VALID,0.318873,
2000-10-15, 00:11:00,VALID,917.282,VALID,0,VALID,97.7889,VALID,-0.0509425,VALID,18.5131,VALID,107,VALID,0.31582,
2000-10-15, 00:12:00,VALID,917.268,VALID,0,VALID,97.8665,VALID,-0.0679233,VALID,18.4967,VALID,109,VALID,0.297697,
2000-10-15, 00:13:00,VALID,917.245,VALID,0,VALID,97.9275,VALID,-0.0509425,VALID,18.4835,VALID,109,VALID,0.0828125,
2000-10-15, 00:14:00,VALID,917.229,VALID,0,VALID,98.0038,VALID,-0.0509425,VALID,18.4577,VALID,103,VALID,0,
2000-10-15, 00:15:00,VALID,917.217,VALID,0,VALID,98.1056,VALID,-0.0509425,VALID,18.4478,VALID,89,VALID,0,
2000-10-15, 00:16:00,VALID,917.211,VALID,0,VALID,98.1602,VALID,-0.0679233,VALID,18.4349,VALID,89,VALID,0,
2000-10-15, 00:17:00,VALID,917.217,VALID,0,VALID,98.2289,VALID,-0.0169808,VALID,18.4319,VALID,89,VALID,0,
2000-10-15, 00:18:00,VALID,917.211,VALID,0,VALID,98.2912,VALID,-0.0679233,VALID,18.4286,VALID,108,VALID,0,
2000-10-15, 00:19:00,VALID,917.198,VALID,0,VALID,98.323,VALID,-0.0679233,VALID,18.4319,VALID,95,VALID,0.0234375,
2000-10-15, 00:20:00,VALID,917.185,VALID,0,VALID,98.3332,VALID,-0.0509425,VALID,18.4515,VALID,102,VALID,0.388775,
2000-10-15, 00:21:00,VALID,917.164,VALID,0,VALID,98.3332,VALID,-0.0849042,VALID,18.4478,VALID,118,VALID,0.103125,
2000-10-15, 00:22:00,VALID,917.15,VALID,0,VALID,98.3205,VALID,-0.0679233,VALID,18.4415,VALID,107,VALID,0.00901442,
2000-10-15, 00:23:00,VALID,917.121,VALID,0,VALID,98.3319,VALID,-0.0679233,VALID,18.4351,VALID,104,VALID,0,
2000-10-15, 00:24:00,VALID,917.089,VALID,0,VALID,98.3484,VALID,-0.0339617,VALID,18.4316,VALID,96,VALID,0.353618,
2000-10-15, 00:25:00,VALID,917.073,VALID,0,VALID,98.3739,VALID,-0.0509425,VALID,18.4284,VALID,93,VALID,0.941797,
2000-10-15, 00:26:00,VALID,917.048,VALID,0,VALID,98.3904,VALID,-0.0679233,VALID,18.4314,VALID,98,VALID,0.518429,
2000-10-15, 00:27:00,VALID,917.047,VALID,0,VALID,98.379,VALID,-0.0509425,VALID,18.4282,VALID,103,VALID,0.0783203,
2000-10-15, 00:28:00,VALID,917.034,VALID,0,VALID,98.398,VALID,-0.0169808,VALID,18.4445,VALID,102,VALID,0,
2000-10-15, 00:29:00,VALID,917.04,VALID,0,VALID,98.4082,VALID,-0.0509425,VALID,18.4346,VALID,102,VALID,0,
2000-10-15, 00:30:00,VALID,917.032,VALID,0,VALID,98.4184,VALID,-0.0339617,VALID,18.4445,VALID,113,VALID,0,
2000-10-15, 00:31:00,VALID,917.022,VALID,0,VALID,98.4324,VALID,-0.0339617,VALID,18.4286,VALID,113,VALID,0,
2000-10-15, 00:32:00,VALID,917.023,VALID,0,VALID,98.4565,VALID,-0.0679233,VALID,18.4323,VALID,104,VALID,0,
2000-10-15, 00:33:00,VALID,917.029,VALID,0,VALID,98.4832,VALID,-0.0339617,VALID,18.4282,VALID,97,VALID,0,
2000-10-15, 00:34:00,VALID,917.029,VALID,0,VALID,98.4947,VALID,-0.0339617,VALID,18.4219,VALID,95,VALID,0.367188,
2000-10-15, 00:35:00,VALID,917.011,VALID,0,VALID,98.5163,VALID,-0.0169808,VALID,18.4155,VALID,96,VALID,0.720703,
2000-10-15, 00:36:00,VALID,917.006,VALID,0,VALID,98.5366,VALID,0,VALID,18.4349,VALID,93,VALID,0.692434,
2000-10-15, 00:37:00,VALID,917.001,VALID,0,VALID,98.5201,VALID,0,VALID,18.4312,VALID,104,VALID,0.487891,
2000-10-15, 00:38:00,VALID,916.989,VALID,0,VALID,98.4934,VALID,-0.0169808,VALID,18.4448,VALID,101,VALID,0.658854,
2000-10-15, 00:39:00,VALID,916.965,VALID,0,VALID,98.4553,VALID,-0.0339617,VALID,18.4418,VALID,93,VALID,0.960547,
2000-10-15, 00:40:00,VALID,916.941,VALID,0,VALID,98.4044,VALID,-0.0339617,VALID,18.4411,VALID,78,VALID,0.783923,
2000-10-15, 00:41:00,VALID,916.941,VALID,0,VALID,98.3383,VALID,-0.0509425,VALID,18.4644,VALID,78,VALID,0.483984,
2000-10-15, 00:42:00,VALID,916.936,VALID,0,VALID,98.2518,VALID,-0.0509425,VALID,18.4838,VALID,69,VALID,0.519431,
2000-10-15, 00:43:00,VALID,916.948,VALID,0,VALID,98.1399,VALID,-0.0509425,VALID,18.5034,VALID,95,VALID,0.650586,
2000-10-15, 00:44:00,VALID,916.958,VALID,0,VALID,98.0318,VALID,-0.0679233,VALID,18.5061,VALID,87,VALID,0.734786,
2000-10-15, 00:45:00,VALID,916.957,VALID,0,VALID,97.9593,VALID,-0.0509425,VALID,18.5163,VALID,94,VALID,0.829492,
2000-10-15, 00:46:00,VALID,916.942,VALID,0,VALID,97.8449,VALID,-0.0679233,VALID,18.5251,VALID,96,VALID,0.990385,
2000-10-15, 00:47:00,VALID,916.958,VALID,0,VALID,97.7343,VALID,-0.0339617,VALID,18.5414,VALID,95,VALID,0.720898,
2000-10-15, 00:48:00,VALID,916.951,VALID,0,VALID,97.6274,VALID,-0.0169808,VALID,18.5481,VALID,90,VALID,0.432771,
2000-10-15, 00:49:00,VALID,916.958,VALID,0,VALID,97.574,VALID,0,VALID,18.5516,VALID,95,VALID,0.56582,
2000-10-15, 00:50:00,VALID,916.948,VALID,0,VALID,97.5308,VALID,-0.0169808,VALID,18.5511,VALID,100,VALID,0.0629006,
2000-10-15, 00:51:00,VALID,916.945,VALID,0,VALID,97.5359,VALID,-0.0169808,VALID,18.5414,VALID,100,VALID,0,
2000-10-15, 00:52:00,VALID,916.934,VALID,0,VALID,97.5473,VALID,-0.0339617,VALID,18.532,VALID,100,VALID,0,
2000-10-15, 00:53:00,VALID,916.933,VALID,0,VALID,97.5944,VALID,-0.0169808,VALID,18.532,VALID,100,VALID,0,
2000-10-15, 00:54:00,VALID,916.933,VALID,0,VALID,97.6745,VALID,-0.0509425,VALID,18.529,VALID,100,VALID,0.200921,
2000-10-15, 00:55:00,VALID,916.924,VALID,0,VALID,97.7444,VALID,-0.0169808,VALID,18.5156,VALID,84,VALID,0.606836,
2000-10-15, 00:56:00,VALID,916.938,VALID,0,VALID,97.7495,VALID,-0.0339617,VALID,18.5384,VALID,82,VALID,0.202097,
2000-10-15, 00:57:00,VALID,916.93,VALID,0,VALID,97.7508,VALID,-0.0509425,VALID,18.5514,VALID,82,VALID,0,
2000-10-15, 00:58:00,VALID,916.939,VALID,0,VALID,97.7304,VALID,-0.0339617,VALID,18.5514,VALID,82,VALID,0,
2000-10-15, 00:59:00,VALID,916.935,VALID,0,VALID,97.761,VALID,-0.0339617,VALID,18.5643,VALID,82,VALID,0,
2000-10-15, 01:00:00,VALID,916.936,VALID,0,VALID,97.7343,VALID,-0.0339617,VALID,18.5576,VALID,97,VALID,0,
2000-10-15, 01:01:00,VALID,916.94,VALID,0,VALID,97.7648,VALID,-0.0509425,VALID,18.577,VALID,121,VALID,0,
2000-10-15, 01:02:00,VALID,916.94,VALID,0,VALID,97.761,VALID,-0.0849042,VALID,18.5968,VALID,122,VALID,0,
2000-10-15, 01:03:00,VALID,916.953,VALID,0,VALID,97.7495,VALID,-0.0339617,VALID,18.6197,VALID,122,VALID,0,
2000-10-15, 01:04:00,VALID,916.945,VALID,0,VALID,97.7482,VALID,-0.0509425,VALID,18.6259,VALID,122,VALID,0,
2000-10-15, 01:05:00,VALID,916.942,VALID,0,VALID,97.7241,VALID,-0.0169808,VALID,18.6224,VALID,122,VALID,0,
2000-10-15, 01:06:00,VALID,916.945,VALID,0,VALID,97.7012,VALID,-0.0509425,VALID,18.606,VALID,122,VALID,0,
2000-10-15, 01:07:00,VALID,916.937,VALID,0,VALID,97.6974,VALID,-0.0339617,VALID,18.6127,VALID,122,VALID,0,
2000-10-15, 01:08:00,VALID,916.939,VALID,0,VALID,97.7432,VALID,-0.0509425,VALID,18.6063,VALID,122,VALID,0,
2000-10-15, 01:09:00,VALID,916.926,VALID,0,VALID,97.705,VALID,-0.0169808,VALID,18.5832,VALID,122,VALID,0,
2000-10-15, 01:10:00,VALID,916.914,VALID,0,VALID,97.6974,VALID,-0.0509425,VALID,18.5867,VALID,122,VALID,0.0921474,
2000-10-15, 01:11:00,VALID,916.886,VALID,0,VALID,97.7139,VALID,-0.0509425,VALID,18.5894,VALID,118,VALID,0.408008,
2000-10-15, 01:12:00,VALID,916.859,VALID,0,VALID,97.6516,VALID,-0.0169808,VALID,18.5931,VALID,121,VALID,0.357113,
2000-10-15, 01:13:00,VALID,916.837,VALID,0,VALID,97.574,VALID,-0.0339617,VALID,18.5904,VALID,97,VALID,0.280469,
2000-10-15, 01:14:00,VALID,916.826,VALID,0,VALID,97.5079,VALID,-0.0169808,VALID,18.5931,VALID,96,VALID,0.125801,
2000-10-15, 01:15:00,VALID,916.802,VALID,0,VALID,97.471,VALID,-0.0339617,VALID,18.6063,VALID,93,VALID,0.267773,
2000-10-15, 01:16:00,VALID,916.787,VALID,0,VALID,97.4774,VALID,-0.0169808,VALID,18.6192,VALID,110,VALID,0.147204,
2000-10-15, 01:17:00,VALID,916.779,VALID,0,VALID,97.4342,VALID,-0.0339617,VALID,18.6125,VALID,93,VALID,0.464648,
2000-10-15, 01:18:00,VALID,916.759,VALID,0,VALID,97.3337,VALID,-0.0339617,VALID,18.6547,VALID,99,VALID,0.900841,
2000-10-15, 01:19:00,VALID,916.742,VALID,0,VALID,97.2828,VALID,-0.0339617,VALID,18.6903,VALID,94,VALID,1.05117,
2000-10-15, 01:20:00,VALID,916.729,VALID,0,VALID,97.2065,VALID,-0.0169808,VALID,18.7186,VALID,84,VALID,0.583676,
2000-10-15, 01:21:00,VALID,916.721,VALID,0,VALID,97.0552,VALID,-0.0169808,VALID,18.7223,VALID,91,VALID,0.492773,
2000-10-15, 01:22:00,VALID,916.713,VALID,0,VALID,96.9916,VALID,-0.0509425,VALID,18.7258,VALID,91,VALID,0.0472756,
2000-10-15, 01:23:00,VALID,916.69,VALID,0,VALID,97.0005,VALID,-0.0169808,VALID,18.7057,VALID,116,VALID,0,
2000-10-15, 01:24:00,VALID,916.686,VALID,0,VALID,96.9662,VALID,-0.0339617,VALID,18.6965,VALID,109,VALID,0.367188,
2000-10-15, 01:25:00,VALID,916.675,VALID,0,VALID,96.9242,VALID,-0.0509425,VALID,18.6801,VALID,106,VALID,0.532031,
2000-10-15, 01:26:00,VALID,916.653,VALID,0,VALID,96.9052,VALID,-0.0339617,VALID,18.6935,VALID,112,VALID,0.773237,
2000-10-15, 01:27:00,VALID,916.617,VALID,0,VALID,96.9637,VALID,-0.0509425,VALID,18.6967,VALID,106,VALID,0.82793,
2000-10-15, 01:28:00,VALID,916.585,VALID,0,VALID,96.9573,VALID,-0.0339617,VALID,18.7062,VALID,102,VALID,0.818668,
2000-10-15, 01:29:00,VALID,916.566,VALID,0,VALID,96.9281,VALID,-0.0339617,VALID,18.699,VALID,93,VALID,0.660547,
2000-10-15, 01:30:00,VALID,916.533,VALID,0,VALID,96.9153,VALID,-0.0509425,VALID,18.7064,VALID,94,VALID,0.494591,
2000-10-15, 01:31:00,VALID,916.507,VALID,0,VALID,96.942,VALID,-0.0169808,VALID,18.6866,VALID,95,VALID,0.459766,
2000-10-15, 01:32:00,VALID,916.478,VALID,0,VALID,96.942,VALID,-0.0679233,VALID,18.6833,VALID,95,VALID,0.490543,
2000-10-15, 01:33:00,VALID,916.458,VALID,0,VALID,96.9395,VALID,-0.0849042,VALID,18.6903,VALID,95,VALID,0.635742,
2000-10-15, 01:34:00,VALID,916.427,VALID,0,VALID,96.9344,VALID,-0.0169808,VALID,18.6967,VALID,95,VALID,0.676082,
2000-10-15, 01:35:00,VALID,916.409,VALID,0,VALID,96.97,VALID,-0.0339617,VALID,18.6933,VALID,94,VALID,0.852734,
2000-10-15, 01:36:00,VALID,916.385,VALID,0,VALID,96.9649,VALID,-0.0849042,VALID,18.6771,VALID,87,VALID,1.09622,
2000-10-15, 01:37:00,VALID,916.385,VALID,0,VALID,96.9993,VALID,-0.0339617,VALID,18.6771,VALID,85,VALID,1.01875,
2000-10-15, 01:38:00,VALID,916.361,VALID,0,VALID,97.0412,VALID,-0.0169808,VALID,18.6577,VALID,84,VALID,0.91887,
2000-10-15, 01:39:00,VALID,916.328,VALID,0,VALID,97.0934,VALID,0,VALID,18.6577,VALID,89,VALID,0.918945,
2000-10-15, 01:40:00,VALID,916.312,VALID,0,VALID,97.1213,VALID,-0.0339617,VALID,18.651,VALID,87,VALID,0.904605,
2000-10-15, 01:41:00,VALID,916.282,VALID,0,VALID,97.1442,VALID,-0.0339617,VALID,18.661,VALID,84,VALID,0.781055,
2000-10-15, 01:42:00,VALID,916.262,VALID,0,VALID,97.1175,VALID,-0.0509425,VALID,18.6651,VALID,87,VALID,0.652444,
2000-10-15, 01:43:00,VALID,916.246,VALID,0,VALID,97.1264,VALID,-0.0169808,VALID,18.6448,VALID,88,VALID,0.564648,
2000-10-15, 01:44:00,VALID,916.231,VALID,0,VALID,97.1417,VALID,-0.0169808,VALID,18.6513,VALID,93,VALID,0.753906,
2000-10-15, 01:45:00,VALID,916.195,VALID,0,VALID,97.1824,VALID,-0.0679233,VALID,18.6381,VALID,92,VALID,0.949023,
2000-10-15, 01:46:00,VALID,916.182,VALID,0,VALID,97.2142,VALID,-0.0339617,VALID,18.66,VALID,93,VALID,1.46434,
2000-10-15, 01:47:00,VALID,916.152,VALID,0,VALID,97.1417,VALID,0.0509425,VALID,18.7112,VALID,71,VALID,0.914063,
2000-10-15, 01:48:00,VALID,916.153,VALID,0,VALID,96.9815,VALID,0.0339617,VALID,18.7403,VALID,87,VALID,0.749794,
2000-10-15, 01:49:00,VALID,916.158,VALID,0,VALID,96.9014,VALID,0.0169808,VALID,18.7336,VALID,93,VALID,0.924609,
2000-10-15, 01:50:00,VALID,916.156,VALID,0,VALID,96.9192,VALID,0.0679233,VALID,18.7336,VALID,100,VALID,0.728966,
2000-10-15, 01:51:00,VALID,916.173,VALID,0,VALID,96.8746,VALID,0.0679233,VALID,18.7373,VALID,85,VALID,0.741797,
2000-10-15, 01:52:00,VALID,916.185,VALID,0,VALID,96.9026,VALID,0.0509425,VALID,18.7375,VALID,90,VALID,0.844367,
2000-10-15, 01:53:00,VALID,916.179,VALID,0,VALID,96.9281,VALID,0.0509425,VALID,18.7438,VALID,91,VALID,1.03945,
2000-10-15, 01:54:00,VALID,916.174,VALID,0,VALID,96.9319,VALID,0.0339617,VALID,18.7567,VALID,96,VALID,1.13041,
2000-10-15, 01:55:00,VALID,916.167,VALID,0,VALID,96.8988,VALID,0.0509425,VALID,18.7627,VALID,89,VALID,1.19746,
2000-10-15, 01:56:00,VALID,916.185,VALID,0,VALID,96.8836,VALID,0.0679233,VALID,18.7754,VALID,92,VALID,0.830592,
2000-10-15, 01:57:00,VALID,916.185,VALID,0,VALID,96.9026,VALID,0.0679233,VALID,18.7828,VALID,83,VALID,0.951953,
2000-10-15, 01:58:00,VALID,916.193,VALID,0,VALID,96.9064,VALID,0.0509425,VALID,18.7853,VALID,90,VALID,1.10577,
2000-10-15, 01:59:00,VALID,916.193,VALID,0,VALID,96.8886,VALID,0.0509425,VALID,18.7989,VALID,87,VALID,1.42578,
2000-10-15, 02:00:00,VALID,916.203,VALID,0,VALID,96.9675,VALID,0.0339617,VALID,18.8116,VALID,78,VALID,1.45641,
2000-10-15, 02:01:00,VALID,916.208,VALID,0,VALID,96.9878,VALID,-0.0509425,VALID,18.861,VALID,89,VALID,1.7127,
2000-10-15, 02:02:00,VALID,916.206,VALID,0,VALID,96.9141,VALID,-0.0169808,VALID,18.8898,VALID,88,VALID,1.92328,
2000-10-15, 02:03:00,VALID,916.221,VALID,0,VALID,96.7488,VALID,-0.0679233,VALID,18.9194,VALID,84,VALID,1.46504,
2000-10-15, 02:04:00,VALID,916.242,VALID,0,VALID,96.6661,VALID,-0.0509425,VALID,18.9097,VALID,89,VALID,0.946957,
2000-10-15, 02:05:00,VALID,916.244,VALID,0,VALID,96.7017,VALID,-0.0849042,VALID,18.9196,VALID,75,VALID,1.42852,
2000-10-15, 02:06:00,VALID,916.236,VALID,0,VALID,96.661,VALID,-0.0679233,VALID,18.945,VALID,88,VALID,1.1264,
2000-10-15, 02:07:00,VALID,916.238,VALID,0,VALID,96.647,VALID,-0.0509425,VALID,18.9358,VALID,83,VALID,1.07676,
2000-10-15, 02:08:00,VALID,916.212,VALID,0,VALID,96.6432,VALID,-0.0849042,VALID,18.939,VALID,86,VALID,0.961349,
2000-10-15, 02:09:00,VALID,916.189,VALID,0,VALID,96.6636,VALID,-0.0679233,VALID,18.9159,VALID,88,VALID,1.14258,
2000-10-15, 02:10:00,VALID,916.168,VALID,0,VALID,96.7678,VALID,-0.0849042,VALID,18.9035,VALID,76,VALID,1.01282,
2000-10-15, 02:11:00,VALID,916.17,VALID,0,VALID,96.8314,VALID,-0.101885,VALID,18.9005,VALID,80,VALID,1.07773,
2000-10-15, 02:12:00,VALID,916.175,VALID,0,VALID,96.8721,VALID,-0.0849042,VALID,18.8903,VALID,78,VALID,0.927837,
2000-10-15, 02:13:00,VALID,916.175,VALID,0,VALID,96.9141,VALID,-0.0679233,VALID,18.8677,VALID,72,VALID,0.765625,
2000-10-15, 02:14:00,VALID,916.182,VALID,0,VALID,96.9967,VALID,-0.0679233,VALID,18.8649,VALID,71,VALID,0.921274,
2000-10-15, 02:15:00,VALID,916.178,VALID,0,VALID,97.1188,VALID,-0.0679233,VALID,18.8518,VALID,77,VALID,0.786914,
2000-10-15, 02:16:00,VALID,916.17,VALID,0,VALID,97.2193,VALID,0.0169808,VALID,18.8444,VALID,91,VALID,0.963816,
2000-10-15, 02:17:01,VALID,916.156,VALID,0,VALID,97.307,VALID,0,VALID,18.8374,VALID,70,VALID,0.942578,
2000-10-15, 02:18:00,VALID,916.143,VALID,0,VALID,97.4202,VALID,0.0849042,VALID,18.8372,VALID,76,VALID,1.14143,
2000-10-15, 02:19:01,VALID,916.107,VALID,0,VALID,97.4876,VALID,0.0339617,VALID,18.8171,VALID,84,VALID,0.906641,
2000-10-15, 02:20:00,VALID,916.101,VALID,0,VALID,97.5931,VALID,0.0509425,VALID,18.8277,VALID,72,VALID,1.19655,
2000-10-15, 02:21:01,VALID,916.074,VALID,0,VALID,97.7215,VALID,0.0339617,VALID,18.8106,VALID,80,VALID,1.11367,
2000-10-15, 02:22:00,VALID,916.06,VALID,0,VALID,97.8665,VALID,0.0509425,VALID,18.8466,VALID,60,VALID,1.55449,
2000-10-15, 02:23:00,VALID,916.059,VALID,0,VALID,97.9403,VALID,0.0679233,VALID,18.911,VALID,35,VALID,1.04492,
2000-10-15, 02:24:00,VALID,916.072,VALID,0,VALID,97.8894,VALID,0.0339617,VALID,18.9694,VALID,78,VALID,0.874383,
2000-10-15, 02:25:00,VALID,916.067,VALID,0,VALID,97.6974,VALID,0.0169808,VALID,18.9625,VALID,101,VALID,0.0228516,
2000-10-15, 02:26:00,VALID,916.051,VALID,0,VALID,97.5931,VALID,0.0339617,VALID,18.9694,VALID,102,VALID,0,
2000-10-15, 02:27:00,VALID,916.054,VALID,0,VALID,97.5982,VALID,0.0169808,VALID,18.9761,VALID,93,VALID,0,
2000-10-15, 02:28:00,VALID,916.068,VALID,0,VALID,97.5969,VALID,0.0339617,VALID,18.9597,VALID,85,VALID,0,
2000-10-15, 02:29:01,VALID,916.03,VALID,0,VALID,97.6936,VALID,0.0509425,VALID,18.9664,VALID,96,VALID,0,
2000-10-15, 02:30:00,VALID,916.017,VALID,0,VALID,97.7686,VALID,0.0339617,VALID,18.989,VALID,94,VALID,0,
2000-10-15, 02:31:01,VALID,916.014,VALID,0,VALID,97.7788,VALID,0.0169808,VALID,18.9892,VALID,76,VALID,0.0373047,
2000-10-15, 02:32:00,VALID,916.017,VALID,0,VALID,97.7762,VALID,0.0339617,VALID,18.9761,VALID,78,VALID,0.39597,
2000-10-15, 02:33:01,VALID,915.998,VALID,0,VALID,97.8004,VALID,0.0679233,VALID,18.9597,VALID,90,VALID,0.323047,
2000-10-15, 02:34:00,VALID,916.003,VALID,0,VALID,97.85,VALID,0.0169808,VALID,18.9535,VALID,99,VALID,0.392228,
2000-10-15, 02:35:00,VALID,916.019,VALID,0,VALID,97.9161,VALID,0.0339617,VALID,18.9237,VALID,98,VALID,0.0457031,
2000-10-15, 02:36:00,VALID,916.017,VALID,0,VALID,98,VALID,0.0339617,VALID,18.9209,VALID,98,VALID,0,
2000-10-15, 02:37:00,VALID,915.992,VALID,0,VALID,98.0967,VALID,0.0339617,VALID,18.9179,VALID,121,VALID,0,
2000-10-15, 02:38:00,VALID,915.985,VALID,0,VALID,98.1374,VALID,0.0169808,VALID,18.9115,VALID,137,VALID,0,
2000-10-15, 02:39:00,VALID,915.953,VALID,0,VALID,98.178,VALID,0.0509425,VALID,18.8819,VALID,127,VALID,0,
2000-10-15, 02:40:00,VALID,915.928,VALID,0,VALID,98.1971,VALID,0.0679233,VALID,18.876,VALID,124,VALID,0,
2000-10-15, 02:41:01,VALID,915.941,VALID,0,VALID,98.234,VALID,0.0169808,VALID,18.8529,VALID,164,VALID,0,
2000-10-15, 02:42:00,VALID,915.946,VALID,0,VALID,98.2493,VALID,0.0509425,VALID,18.8305,VALID,279,VALID,0,
2000-10-15, 02:43:01,VALID,915.961,VALID,0,VALID,98.2938,VALID,0.0679233,VALID,18.8076,VALID,281,VALID,0,
2000-10-15, 02:44:00,VALID,915.944,VALID,0,VALID,98.3294,VALID,0.0339617,VALID,18.7952,VALID,273,VALID,0,
2000-10-15, 02:45:01,VALID,915.936,VALID,0,VALID,98.3688,VALID,0.0169808,VALID,18.7758,VALID,245,VALID,0,
2000-10-15, 02:46:00,VALID,915.926,VALID,0,VALID,98.4108,VALID,0,VALID,18.7694,VALID,248,VALID,0,
2000-10-15, 02:47:00,VALID,915.944,VALID,0,VALID,98.4489,VALID,0,VALID,18.7659,VALID,268,VALID,0,
2000-10-15, 02:48:00,VALID,915.939,VALID,0,VALID,98.4934,VALID,0.0169808,VALID,18.7592,VALID,281,VALID,0,
2000-10-15, 02:49:00,VALID,915.932,VALID,0,VALID,98.6028,VALID,0.0679233,VALID,18.7855,VALID,299,VALID,0,
2000-10-15, 02:50:00,VALID,915.926,VALID,0,VALID,98.6765,VALID,0.0339617,VALID,18.8049,VALID,277,VALID,0,
2000-10-15, 02:51:00,VALID,915.904,VALID,0,VALID,98.6791,VALID,0.0509425,VALID,18.7982,VALID,220,VALID,0,
2000-10-15, 02:52:00,VALID,915.895,VALID,0,VALID,98.7032,VALID,0.0509425,VALID,18.7913,VALID,189,VALID,0,
2000-10-15, 02:53:01,VALID,915.883,VALID,0,VALID,98.7299,VALID,0.0849042,VALID,18.8049,VALID,83,VALID,0,
2000-10-15, 02:54:00,VALID,915.88,VALID,0,VALID,98.7566,VALID,0.0169808,VALID,18.795,VALID,83,VALID,0,
2000-10-15, 02:55:01,VALID,915.878,VALID,0,VALID,98.7782,VALID,0.0339617,VALID,18.7984,VALID,83,VALID,0,
2000-10-15, 02:56:00,VALID,915.892,VALID,0,VALID,98.8062,VALID,0,VALID,18.8017,VALID,118,VALID,0,
2000-10-15, 02:57:01,VALID,915.887,VALID,0,VALID,98.8494,VALID,0.0339617,VALID,18.8143,VALID,180,VALID,0,
2000-10-15, 02:58:00,VALID,915.873,VALID,0,VALID,98.8812,VALID,0.0339617,VALID,18.8173,VALID,289,VALID,0,
2000-10-15, 02:59:00,VALID,915.9,VALID,0,VALID,98.8914,VALID,0,VALID,18.8307,VALID,281,VALID,0,
2000-10-15, 03:00:00,VALID,915.9,VALID,0,VALID,98.9016,VALID,0.0679233,VALID,18.8402,VALID,287,VALID,0,
2000-10-15, 03:01:00,VALID,915.905,VALID,0,VALID,98.9232,VALID,0.0679233,VALID,18.8434,VALID,289,VALID,0,
2000-10-15, 03:02:00,VALID,915.889,VALID,0,VALID,98.9525,VALID,0.0339617,VALID,18.8529,VALID,223,VALID,0,
2000-10-15, 03:03:00,VALID,915.852,VALID,0,VALID,98.9677,VALID,0.0169808,VALID,18.8591,VALID,144,VALID,0,
2000-10-15, 03:04:00,VALID,915.843,VALID,0,VALID,98.9817,VALID,0.0339617,VALID,18.8658,VALID,103,VALID,0,
2000-10-15, 03:05:01,VALID,915.839,VALID,0,VALID,98.9868,VALID,0.0509425,VALID,18.8593,VALID,105,VALID,0,
2000-10-15, 03:06:00,VALID,915.823,VALID,0,VALID,98.983,VALID,0.0339617,VALID,18.8524,VALID,105,VALID,0,
2000-10-15, 03:07:01,VALID,915.818,VALID,0,VALID,99.0071,VALID,0.0679233,VALID,18.869,VALID,105,VALID,0,
2000-10-15, 03:08:00,VALID,915.818,VALID,0,VALID,99.0287,VALID,0.0679233,VALID,18.8618,VALID,105,VALID,0,
2000-10-15, 03:09:01,VALID,915.82,VALID,0,VALID,99.0224,VALID,0.0339617,VALID,18.8688,VALID,105,VALID,0,
2000-10-15, 03:10:00,VALID,915.822,VALID,0,VALID,99.0402,VALID,0.0679233,VALID,18.8685,VALID,105,VALID,0,
2000-10-15, 03:11:00,VALID,915.822,VALID,0,VALID,99.0453,VALID,0.0339617,VALID,18.8653,VALID,105,VALID,0,
2000-10-15, 03:12:00,VALID,915.831,VALID,0,VALID,99.0491,VALID,0.0679233,VALID,18.8755,VALID,167,VALID,0,
2000-10-15, 03:13:01,VALID,915.826,VALID,0,VALID,99.0707,VALID,0.0339617,VALID,18.8787,VALID,253,VALID,0,
2000-10-15, 03:14:00,VALID,915.841,VALID,0,VALID,99.0694,VALID,0.0509425,VALID,18.8882,VALID,252,VALID,0,
2000-10-15, 03:15:01,VALID,915.835,VALID,0,VALID,99.086,VALID,0.0169808,VALID,18.8949,VALID,252,VALID,0,
2000-10-15, 03:16:00,VALID,915.836,VALID,0,VALID,99.0872,VALID,0.0169808,VALID,18.9018,VALID,252,VALID,0,
2000-10-15, 03:17:01,VALID,915.828,VALID,0,VALID,99.0936,VALID,0.0509425,VALID,18.9108,VALID,252,VALID,0,
2000-10-15, 03:18:00,VALID,915.824,VALID,0,VALID,99.105,VALID,0.0169808,VALID,18.9239,VALID,251,VALID,0,
2000-10-15, 03:19:01,VALID,915.847,VALID,0,VALID,99.0936,VALID,0.0849042,VALID,18.9232,VALID,250,VALID,0,
2000-10-15, 03:20:01,VALID,915.831,VALID,0,VALID,99.0936,VALID,0.0339617,VALID,18.9368,VALID,250,VALID,0,
2000-10-15, 03:21:01,VALID,915.824,VALID,0,VALID,99.1012,VALID,0.0339617,VALID,18.95,VALID,250,VALID,0,
2000-10-15, 03:22:01,VALID,915.827,VALID,0,VALID,99.1025,VALID,0.0339617,VALID,18.9629,VALID,249,VALID,0,
2000-10-15, 03:23:01,VALID,915.837,VALID,0,VALID,99.1114,VALID,0.0339617,VALID,18.9587,VALID,120,VALID,0,
2000-10-15, 03:24:01,VALID,915.831,VALID,0,VALID,99.1203,VALID,0.0339617,VALID,18.9719,VALID,96,VALID,0,
2000-10-15, 03:25:01,VALID,915.844,VALID,0,VALID,99.0987,VALID,0.0339617,VALID,18.9788,VALID,100,VALID,0,
2000-10-15, 03:26:01,VALID,915.84,VALID,0,VALID,99.0669,VALID,0.0679233,VALID,18.9523,VALID,100,VALID,0,
2000-10-15, 03:27:01,VALID,915.818,VALID,0,VALID,99.0822,VALID,0.0509425,VALID,18.959,VALID,100,VALID,0,
2000-10-15, 03:28:00,VALID,915.809,VALID,0,VALID,99.0783,VALID,0.0339617,VALID,18.959,VALID,108,VALID,0,
2000-10-15, 03:29:01,VALID,915.794,VALID,0,VALID,99.0771,VALID,0.0509425,VALID,18.9694,VALID,121,VALID,0,
2000-10-15, 03:30:01,VALID,915.789,VALID,0,VALID,99.0783,VALID,0.0509425,VALID,18.9784,VALID,121,VALID,0,
2000-10-15, 03:31:01,VALID,915.77,VALID,0,VALID,99.0847,VALID,0,VALID,18.9865,VALID,121,VALID,0,
2000-10-15, 03:32:01,VALID,915.756,VALID,0,VALID,99.086,VALID,-0.0679233,VALID,18.9997,VALID,121,VALID,0,
2000-10-15, 03:33:01,VALID,915.737,VALID,0,VALID,99.0898,VALID,-0.101885,VALID,19.0026,VALID,121,VALID,0,
2000-10-15, 03:34:01,VALID,915.733,VALID,0,VALID,99.0707,VALID,-0.0849042,VALID,19.0322,VALID,121,VALID,0,
2000-10-15, 03:35:01,VALID,915.71,VALID,0,VALID,99.058,VALID,-0.0849042,VALID,19.0322,VALID,111,VALID,0,